TimeICT,TemperatureF,Dew PointF,Humidity,Sea Level PressureIn,VisibilityMPH,Wind Direction,Wind SpeedMPH,Gust SpeedMPH,PrecipitationIn,Events,Conditions,WindDirDegrees,DateUTC
12:00 AM,80.6,71.6,74,29.89,2.5,Calm,Calm,-,N/A,,Mostly Cloudy,0,2012-10-20 17:00:00
12:30 AM,80.6,71.6,74,29.89,2.5,Calm,Calm,-,N/A,,Mostly Cloudy,0,2012-10-20 17:30:00
1:00 AM,80.6,71.6,74,29.86,2.5,Calm,Calm,-,N/A,,Mostly Cloudy,0,2012-10-20 18:00:00
1:30 AM,78.8,71.6,78,29.86,2.5,Calm,Calm,-,N/A,,Mostly Cloudy,0,2012-10-20 18:30:00
2:00 AM,78.8,71.6,78,29.86,1.9,Calm,Calm,-,N/A,,Mostly Cloudy,0,2012-10-20 19:00:00
2:30 AM,78.8,71.6,78,29.83,1.9,Calm,Calm,-,N/A,,Mostly Cloudy,0,2012-10-20 19:30:00
4:00 AM,78.8,69.8,74,29.83,1.9,Calm,Calm,-,N/A,,Mostly Cloudy,0,2012-10-20 21:00:00
4:30 AM,78.8,69.8,74,29.83,1.9,Calm,Calm,-,N/A,,Mostly Cloudy,0,2012-10-20 21:30:00
5:00 AM,78.8,69.8,74,29.83,1.2,Calm,Calm,-,N/A,,Mostly Cloudy,0,2012-10-20 22:00:00
5:30 AM,78.8,69.8,74,29.83,1.2,Calm,Calm,-,N/A,,Mostly Cloudy,0,2012-10-20 22:30:00
6:00 AM,78.8,69.8,74,29.86,0.6,Calm,Calm,-,N/A,,Mostly Cloudy,0,2012-10-20 23:00:00
6:30 AM,78.8,69.8,74,29.86,0.6,Calm,Calm,-,N/A,,Mostly Cloudy,0,2012-10-20 23:30:00
7:00 AM,78.8,69.8,74,29.86,0.9,Calm,Calm,-,N/A,,Mostly Cloudy,0,2012-10-21 00:00:00
7:30 AM,80.6,69.8,70,29.89,0.9,Calm,Calm,-,N/A,,Mostly Cloudy,0,2012-10-21 00:30:00
8:00 AM,80.6,71.6,74,29.89,0.9,Calm,Calm,-,N/A,,Mostly Cloudy,0,2012-10-21 01:00:00
8:30 AM,84.2,71.6,66,29.89,0.9,Calm,Calm,-,N/A,,Mostly Cloudy,0,2012-10-21 01:30:00
9:00 AM,86.0,71.6,62,29.92,0.9,Calm,Calm,-,N/A,,Mostly Cloudy,0,2012-10-21 02:00:00
9:30 AM,89.6,66.2,46,29.92,0.9,Calm,Calm,-,N/A,,Mostly Cloudy,0,2012-10-21 02:30:00
10:00 AM,89.6,66.2,46,29.92,1.2,Calm,Calm,-,N/A,,Haze,0,2012-10-21 03:00:00
10:30 AM,89.6,66.2,46,29.92,1.2,South,4.6,-,N/A,,Haze,190,2012-10-21 03:30:00
11:00 AM,89.6,64.4,43,29.92,1.2,South,4.6,-,N/A,,Haze,170,2012-10-21 04:00:00
11:30 AM,93.2,64.4,38,29.89,1.2,NNW,4.6,-,N/A,,Haze,340,2012-10-21 04:30:00
12:30 PM,91.4,64.4,41,29.86,1.2,South,4.6,-,N/A,,Haze,190,2012-10-21 05:30:00
1:00 PM,91.4,66.2,43,29.83,1.2,SSW,6.9,-,N/A,Thunderstorm,Unknown,200,2012-10-21 06:00:00
1:30 PM,91.4,66.2,43,29.83,1.2,SW,4.6,-,N/A,Thunderstorm,Unknown,220,2012-10-21 06:30:00
2:00 PM,89.6,68.0,49,29.83,1.2,West,4.6,-,N/A,,Haze,260,2012-10-21 07:00:00
2:30 PM,87.8,68.0,52,29.80,1.2,West,4.6,-,N/A,,Haze,280,2012-10-21 07:30:00
3:00 PM,89.6,68.0,49,29.80,1.2,NW,6.9,-,N/A,,Haze,310,2012-10-21 08:00:00
3:30 PM,89.6,68.0,49,29.80,1.2,NW,4.6,-,N/A,Thunderstorm,Unknown,310,2012-10-21 08:30:00
4:00 PM,89.6,66.2,46,29.80,1.2,East,2.3,-,N/A,Thunderstorm,Thunderstorm,80,2012-10-21 09:00:00
4:30 PM,89.6,68.0,49,29.80,1.2,NE,2.3,-,N/A,Thunderstorm,Unknown,40,2012-10-21 09:30:00
5:00 PM,89.6,69.8,52,29.80,1.9,North,36.8,-,N/A,Thunderstorm,Thunderstorm,10,2012-10-21 10:00:00
5:30 PM,87.8,69.8,55,29.80,1.9,NE,2.3,-,N/A,,Haze,40,2012-10-21 10:30:00
6:00 PM,86.0,69.8,58,29.80,1.9,Calm,Calm,-,N/A,,Haze,0,2012-10-21 11:00:00
6:30 PM,84.2,71.6,66,29.83,1.9,NE,2.3,-,N/A,,Mostly Cloudy,50,2012-10-21 11:30:00
7:00 PM,84.2,73.4,70,29.83,1.9,NNE,2.3,-,N/A,,Mostly Cloudy,30,2012-10-21 12:00:00
7:30 PM,84.2,71.6,66,29.83,1.9,Calm,Calm,-,N/A,,Mostly Cloudy,0,2012-10-21 12:30:00
8:00 PM,84.2,71.6,66,29.86,1.9,NE,2.3,-,N/A,,Mostly Cloudy,50,2012-10-21 13:00:00
8:30 PM,82.4,73.4,74,29.86,1.9,NE,2.3,-,N/A,,Mostly Cloudy,50,2012-10-21 13:30:00
9:00 PM,82.4,75.2,79,29.86,1.9,Calm,Calm,-,N/A,,Mostly Cloudy,0,2012-10-21 14:00:00
9:30 PM,82.4,73.4,74,29.89,1.9,North,3.5,-,N/A,,Mostly Cloudy,350,2012-10-21 14:30:00
10:00 PM,80.6,71.6,74,29.89,1.9,North,2.3,-,N/A,,Mostly Cloudy,10,2012-10-21 15:00:00
10:30 PM,80.6,71.6,74,29.89,1.9,North,3.5,-,N/A,,Mostly Cloudy,350,2012-10-21 15:30:00
11:00 PM,80.6,71.6,74,29.89,1.9,Calm,Calm,-,N/A,,Mostly Cloudy,0,2012-10-21 16:00:00
11:30 PM,80.6,71.6,74,29.86,1.9,Calm,Calm,-,N/A,,Mostly Cloudy,0,2012-10-21 16:30:00